Regional Weather Roundup
Issued by NWS

Home | Current Version | Previous Version | Graphics & Text | Print | Product List | Glossary On
Versions: 1 2 3 4 5 6 7 8 9 10 11 12 13 14 15 16 17 18 19 20 21 22 23 24 25 26 27
000
ASUS45 KSLC 240810
RWRUT

UTAH REGIONAL WEATHER ROUNDUP
NATIONAL WEATHER SERVICE SALT LAKE CITY UT
200 AM MDT TUE MAY 24 2016

UTZ001>011-023>025-240900-

NORTHERN UTAH

CITY           SKY/WX    TMP DP  RH WIND       PRES   REMARKS
BRIGHAM CITY     N/A     50  42  72 NE3       29.83F
HILL AFB       MOCLDY    54  33  46 E13       29.82F
LOGAN          MOCLDY    46  42  86 W3        29.85F
OGDEN          MOCLDY    55  35  47 N6        29.81F
PROVO AIRPORT  MOCLDY    54  37  54 CALM      29.81S
SALT LAKE CITY MOCLDY    54  40  59 CALM      29.81S
VERNAL         CLEAR     48  32  53 W6        29.87F
WENDOVER       CLEAR     55  34  44 CALM      29.83S
HEBER CITY     CLOUDY    52  32  46 CALM      29.85R
WEST JORDAN    PTCLDY    54  34  47 W6        29.82F

$$

UTZ012>022-026-027-240900-

SOUTHERN/CENTRAL UTAH

CITY           SKY/WX    TMP DP  RH WIND       PRES   REMARKS
BLANDING       CLEAR     47  20  34 NE7       29.97R
BRYCE CANYON   CLEAR     28  23  81 CALM      29.97S
CEDAR CITY     PTCLDY    53  22  29 S10       29.86S
DELTA          MOCLDY    48  34  57 NE5       29.81S
HANKSVILLE     PTCLDY    48  16  27 NE3       29.80R
MILFORD        PTCLDY    51  22  31 SW10      29.82S
MOAB/CYNLANDS  MOCLDY    61  19  19 E6        29.77S
PRICE          MOCLDY    51  16  24 N3        29.84S
ST GEORGE      PTSUNNY   63  21  20 SE13      29.78S
KANAB          CLEAR     46  27  46 NE8       29.91R

$$

REGIONAL REPORTS     COLORADO/ARIZONA

CITY           SKY/WX    TMP DP  RH WIND       PRES   REMARKS
CRAIG, CO      CLOUDY    40  33  76 E6        29.94F
GRAND JUNCTION CLOUDY    50  27  40 E12       29.83S
RIFLE          CLOUDY    46  30  53 CALM      29.89F
MONTROSE       CLOUDY    50  25  37 SE10      29.92S
CORTEZ         CLEAR     40  26  57 E3        29.95R
PAGE, AZ       CLEAR     67  18  15 CALM      29.82R
GRAND CANYON   CLEAR     45  21  38 S5        29.97S
KINGMAN        CLEAR     56  17  21 S10       29.82R
FLAGSTAFF      CLEAR     40  22  48 CALM      29.99F

$$

REGIONAL REPORTS    NEVADA/IDAHO/WYOMING

CITY           SKY/WX    TMP DP  RH WIND       PRES   REMARKS
LAS VEGAS, NV  PTCLDY    69  33  26 SW21G32   29.68F
ELY            CLOUDY    48  31  51 W8        29.88R
ELKO           CLOUDY    49  39  68 NE3       29.85F
POCATELLO, ID  CLOUDY    44  37  76 CALM      29.87S
BURLEY         PTCLDY    46  40  79 CALM      29.84F
EVANSTON, WY   CLOUDY    42  29  59 E6        29.93F
ROCK SPRINGS   CLOUDY    45  32  60 SE7       29.96S
KEMMERER         N/A     34  28  80 N6        29.97S WCI  29

$$




USA.gov is the U.S. government's official web portal to all federal, state and local government web resources and services.